Lexington Weather

Lexington, Massachusetts, USA

73°F
9/22/2021 1:42pm 
  • Lexington Conditions: Overcast
  • Temperature: 73.0°F / 22.8°CColder 2.4°F than last hour.
  • Dew Point: 68.2°FDecreased 0.5°Fsince last hour.
  • Relative Humidity: 85%Increased 5.0% since last hour.
  • Wind: Wind from SE SE 3 mph, 10-min avg: 4 mph, gust: 12 mph
  • Barometer: 30.10 in Steady
  • Visibility: 10 miles
  • Rain Today: 0.00 in
  •   

Regional Weather Roundup
for Boston / Norton, MA

        
000
ASUS41 KBOX 200004
RWRBOX

REGIONAL WEATHER ROUNDUP
NATIONAL WEATHER SERVICE BOSTON/NORTON MA
800 PM EDT SUN SEP 19 2021

NOTE:  "FAIR" INDICATES FEW OR NO CLOUDS BELOW 12,000 FEET WITH NO 
SIGNIFICANT WEATHER AND/OR OBSTRUCTIONS TO VISIBILITY.

MAZALL-200100-
EASTERN MASSACHUSETTS
  
CITY           SKY/WX    TMP DP  RH WIND       PRES   REMARKS
BOSTON         CLEAR     64  55  72 SE8       30.19R                  
6HR MIN TEMP:  64; 6HR MAX TEMP:  72;                                

BEVERLY        CLEAR     63  55  75 CALM      30.18R                  
LAWRENCE       CLEAR     64  54  69 CALM      30.21R                  
BEDFORD        CLEAR     62  57  83 SE3       30.18R                  
BLUE HILL      NOT AVBL                                               
NORWOOD        CLEAR     59  54  83 CALM      30.19R                  
MARSHFIELD     CLEAR     59  55  88 CALM      30.19R                  
PLYMOUTH       CLEAR     56  53  90 CALM      30.20R                  
TAUNTON        CLEAR     55  52  89 CALM      30.19R                  
NEW BEDFORD    CLEAR     56  53  90 CALM      30.19R                  
$$

MAZALL-200100-
CAPE COD AND THE ISLANDS
  
CITY           SKY/WX    TMP DP  RH WIND       PRES   REMARKS
FALMOUTH       CLEAR     57  50  77 CALM      30.19R                  
HYANNIS        CLEAR     56  50  80 CALM      30.19R                  
CHATHAM        CLEAR     60  52  74 N3        30.19R                  
PROVINCETOWN   CLEAR     57  53  86 E5        30.20R                  
NANTUCKET      CLEAR     60  51  72 NE5       30.19R                  
MARTHAS VNYRD  CLEAR     55  49  80 NE5       30.19R                  
$$
 
MAZALL-200100-
CENTRAL AND WESTERN MASSACHUSETTS
  
CITY           SKY/WX    TMP DP  RH WIND       PRES   REMARKS
WORCESTER      CLEAR     63  52  67 NW7       30.21R                  
6HR MIN TEMP:  61; 6HR MAX TEMP:  72;                                

FITCHBURG      CLEAR     61  56  83 NW3       30.20R                  
ORANGE         CLEAR     58  54  86 CALM      30.21R                  
SPRINGFIELD    PTCLDY    58  56  93 NE3       30.18R                  
WESTFIELD      CLEAR     60  58  92 CALM      30.19R                  
NORTH ADAMS    CLEAR     57  53  86 CALM      30.22R                  
PITTSFIELD     CLEAR     57  50  77 CALM      30.22R                  
$$
 
RIZALL-200100-
RHODE ISLAND
  
CITY           SKY/WX    TMP DP  RH WIND       PRES   REMARKS
PROVIDENCE     CLEAR     65  54  67 CALM      30.19R                  
6HR MIN TEMP:  65; 6HR MAX TEMP:  75;                                

NEWPORT        CLEAR     61  52  72 E3        30.19R                  
BLOCK ISLAND   CLEAR     63  50  62 E5        30.20R                  
SMITHFIELD     CLEAR     57  54  89 CALM      30.20R                  
WESTERLY       CLEAR     59  57  93 CALM      30.19R                  
$$
 
CTZALL-200100-
CONNECTICUT
  
CITY           SKY/WX    TMP DP  RH WIND       PRES   REMARKS
BRADLEY INTL   PTCLDY    61  53  75 NW3       30.19R                  
6HR MIN TEMP:  60; 6HR MAX TEMP:  75;                                

HARTFORD       CLEAR     65  55  70 CALM      30.18R                  
BRIDGEPORT     CLEAR     70  52  52 CALM      30.18R                  
DANBURY        CLEAR     64  56  75 SW5       30.21R                  
GROTON         CLEAR     61  57  87 CALM      30.19R                  
NEW HAVEN      CLEAR     64  54  69 CALM      30.18R                  
CHESTER        FAIR      61  57  88 CALM      30.20R                  
MERIDEN        CLEAR     60  53  77 CALM      30.18R                  
WILLIMANTIC    CLEAR     62  57  83 CALM      30.19R                  
OXFORD         CLEAR     60  56  86 NE3       30.21R                  
$$

MEZ002-015-021-024-NHZ003-005-008-011-012-014-VTZ005-008-200100-
NORTHERN NEW ENGLAND
  
CITY           SKY/WX    TMP DP  RH WIND       PRES   REMARKS
PORTLAND ME    CLEAR     61  52  72 CALM      30.19R                  
6HR MIN TEMP:  59; 6HR MAX TEMP:  71;                                

BANGOR ME      CLEAR     55  48  77 CALM      30.19R                  
CONCORD NH     CLEAR     57  52  83 CALM      30.19R                  
MANCHESTER NH  CLEAR     68  52  56 CALM      30.17R                  
NASHUA NH      CLEAR     61  60  97 NW5       30.20R                  
PORTSMOUTH NH  CLEAR     59  52  77 CALM      30.20R                  
JAFFREY NH     CLEAR     58  56  93 CALM      30.22R                  
KEENE NH       CLEAR     57  56  96 CALM      30.22R                  
BURLINGTON VT  CLEAR     60  49  66 E3        30.24R                  
MT. WASHINGTON NOT AVBL                                               
$$

NYZ052-076-200100-
EASTERN NEW YORK
  
CITY           SKY/WX    TMP DP  RH WIND       PRES   REMARKS
ALBANY         PTCLDY    58  52  80 CALM      30.21R                  
6HR MIN TEMP:  58; 6HR MAX TEMP:  69;                                

NEW YORK CITY  CLEAR     73  50  44 N8        30.17R                  
6HR MIN TEMP:  73; 6HR MAX TEMP:  78;                                

$$
 
ANZALL-200100-
MARINE OBSERVATIONS
  
STATION/POSITION TIME  TEMP    WIND        PRES    VSBY  WAVE
                       AIR SEA DIR/SP/G                  HT/PER
                 (UTC) (F)     (DEG/KT/KT) (MB)    (MI)  (FT/S)
BOSTON BUOY      2340      66  100/  4/  6 1022.5R
BUZZARDS BAY     2300           70/ 11/ 11 1022.6R
NANTUCKET SOUND  2340   67 72   30/ 12/ 14 1021.8R
MASS BAY-STELLWA 2304   65     110/  6/  8 1021.2R  1 7/8  4/11
ISLE OF SHOALS   2300   64     170/  4/  5 1021.0R
S OF BLOCK IS    2326      71                N/A           4/ 8
$$

......................KEY.........................
  SKY/WX - SKY CONDITION/PRESENT WEATHER
  TMP    - TEMPERATURE IN FAHRENHEIT
  DWPT   - DEWPOINT IN FAHRENHEIT
  RH     - RELATIVE HUMIDITY IN PERCENT
  WIND   - DIRECTION AND SPEED IN MPH
  PRES   - MEAN SEA LEVEL PRESSURE IN INCHES OF HG
  WCI    - WIND CHILL INDEX
  VSB    - VISIBILITY IN MILES
  HX     - HEAT INDEX
  TC     - TEMPERATURE IN CELSIUS
  VRB    - VARIABLE WIND DIRECTION
  N/A    - NOT AVAILABLE
  
      

Other recent Regional Weather Roundups

Wed Sep 22, 1:04pm

Wed Sep 22, 12:05pm

Wed Sep 22, 11:04am

Wed Sep 22, 10:04am

Wed Sep 22, 9:04am

Wed Sep 22, 8:04am

Wed Sep 22, 7:04am

Wed Sep 22, 6:04am

Wed Sep 22, 5:04am

Wed Sep 22, 4:04am

Wed Sep 22, 3:04am

Wed Sep 22, 2:04am

Wed Sep 22, 1:04am

Wed Sep 22, 12:04am

Tue Sep 21, 11:04pm

Tue Sep 21, 10:04pm

Tue Sep 21, 9:04pm

Tue Sep 21, 8:04pm

Tue Sep 21, 7:04pm

Tue Sep 21, 6:04pm

Tue Sep 21, 5:04pm

Tue Sep 21, 4:04pm

Tue Sep 21, 3:04pm

Tue Sep 21, 2:04pm

Tue Sep 21, 1:04pm

Tue Sep 21, 12:04pm

Tue Sep 21, 11:04am

Tue Sep 21, 10:04am

Tue Sep 21, 9:04am

Tue Sep 21, 8:04am

Tue Sep 21, 7:04am

Tue Sep 21, 6:04am

Tue Sep 21, 5:04am

Tue Sep 21, 4:04am

Tue Sep 21, 3:04am

Tue Sep 21, 2:04am

Tue Sep 21, 1:04am

Tue Sep 21, 12:04am

Mon Sep 20, 11:04pm

Mon Sep 20, 10:04pm

Mon Sep 20, 9:04pm

Mon Sep 20, 8:04pm

Mon Sep 20, 7:04pm

Mon Sep 20, 6:04pm

Mon Sep 20, 5:04pm

Mon Sep 20, 4:04pm

Mon Sep 20, 3:04pm

Mon Sep 20, 2:04pm

Mon Sep 20, 1:04pm

Mon Sep 20, 12:04pm

Mon Sep 20, 11:04am

Mon Sep 20, 10:04am

Mon Sep 20, 9:04am

Mon Sep 20, 7:04am

Mon Sep 20, 6:04am

Mon Sep 20, 5:04am

Mon Sep 20, 4:04am

Mon Sep 20, 3:04am

Mon Sep 20, 2:04am

Mon Sep 20, 1:04am

Mon Sep 20, 12:04am

Sun Sep 19, 11:04pm

Sun Sep 19, 10:04pm

Sun Sep 19, 9:04pm

Sun Sep 19, 7:04pm

Sun Sep 19, 6:04pm

Sun Sep 19, 5:04pm

Sun Sep 19, 4:04pm

Sun Sep 19, 3:04pm

Sun Sep 19, 2:05pm

Sun Sep 19, 1:04pm

Sun Sep 19, 12:04pm

Sun Sep 19, 11:04am

Sun Sep 19, 10:05am

Sun Sep 19, 9:04am

Sun Sep 19, 8:04am

Sun Sep 19, 7:04am

Sun Sep 19, 6:04am

Sun Sep 19, 5:04am

Sun Sep 19, 4:04am

Sun Sep 19, 3:04am

Sun Sep 19, 2:04am

Sun Sep 19, 1:04am

Sun Sep 19, 12:04am

Sat Sep 18, 11:05pm

Sat Sep 18, 10:04pm

Sat Sep 18, 9:04pm

Sat Sep 18, 8:04pm

Sat Sep 18, 7:04pm

Sat Sep 18, 6:04pm

Sat Sep 18, 5:04pm

Sat Sep 18, 4:04pm

Sat Sep 18, 3:04pm

Sat Sep 18, 2:04pm

Sat Sep 18, 1:04pm

Sat Sep 18, 12:04pm

Sat Sep 18, 11:04am

Sat Sep 18, 10:04am

Sat Sep 18, 9:04am

Sat Sep 18, 8:04am

Sat Sep 18, 7:04am

Sat Sep 18, 6:04am

Sat Sep 18, 5:04am

Sat Sep 18, 4:04am

Sat Sep 18, 3:04am

Sat Sep 18, 2:04am

Sat Sep 18, 1:04am

Sat Sep 18, 12:04am

Fri Sep 17, 11:04pm

Fri Sep 17, 10:04pm

Fri Sep 17, 9:04pm

Fri Sep 17, 8:04pm

Fri Sep 17, 7:04pm

Fri Sep 17, 6:04pm

Fri Sep 17, 5:04pm

Fri Sep 17, 4:04pm

Fri Sep 17, 3:04pm

Fri Sep 17, 2:04pm

Fri Sep 17, 1:04pm

Fri Sep 17, 12:05pm

Fri Sep 17, 11:04am

Fri Sep 17, 10:04am

Fri Sep 17, 9:04am

Fri Sep 17, 8:04am

Fri Sep 17, 7:04am

Fri Sep 17, 6:04am

Fri Sep 17, 5:04am

Fri Sep 17, 4:04am

Fri Sep 17, 3:04am

Fri Sep 17, 2:04am

Fri Sep 17, 1:04am

Fri Sep 17, 12:04am

Thu Sep 16, 11:04pm

Thu Sep 16, 10:04pm

Thu Sep 16, 9:04pm

Thu Sep 16, 8:04pm

Thu Sep 16, 7:04pm

Thu Sep 16, 6:04pm

Thu Sep 16, 5:04pm

Thu Sep 16, 4:04pm

Thu Sep 16, 3:04pm

Thu Sep 16, 2:04pm

Thu Sep 16, 1:05pm

Thu Sep 16, 12:04pm

Thu Sep 16, 11:05am

Thu Sep 16, 10:05am

Thu Sep 16, 9:04am

Thu Sep 16, 8:04am

Thu Sep 16, 7:04am

Thu Sep 16, 6:04am

Thu Sep 16, 5:04am

Thu Sep 16, 4:04am

Thu Sep 16, 3:04am

Thu Sep 16, 2:04am

Thu Sep 16, 1:04am

Thu Sep 16, 12:04am

Wed Sep 15, 11:04pm

Wed Sep 15, 10:04pm

Wed Sep 15, 9:04pm

Wed Sep 15, 8:04pm

Wed Sep 15, 7:04pm

Wed Sep 15, 6:04pm

Wed Sep 15, 5:05pm

Wed Sep 15, 4:04pm

Wed Sep 15, 3:04pm

Wed Sep 15, 2:04pm

Meta data:

ID: d875642c-6c51-4e33-9989-82f1f4c2417e
Link: https://api.weather.gov/products/d875642c-6c51-4e33-9989-82f1f4c2417e